AAY781 KGSP-KSFB

Flight info

Callsign AAY781
Flight time N/A
Altitude 39000
Route SOTHH QUIWE Q93 GURGE/N0435F380 Q93 GIPPL Q85 LPERD TTHOR3
Aircraft A319/M-SDE3FGHIRWY/LB1

Departure

Time 2026-04-27 02:17
Airport Greenville-Spartanburg International Airport (KGSP)

Arrival

Time N/A
Airport Orlando Sanford International Airport (KSFB)
Time Latitude Longitude Altitude Speed Heading
2026-04-27 02:03 34.89230 -82.21695 939 ft 0 kts 123°
2026-04-27 02:13 34.89241 -82.21716 940 ft 3 kts 122°
2026-04-27 02:13 34.89255 -82.21744 941 ft 3 kts 122°
2026-04-27 02:13 34.89260 -82.21753 942 ft 0 kts 122°
2026-04-27 02:14 34.89259 -82.21752 942 ft 0 kts 127°
2026-04-27 02:14 34.89252 -82.21755 941 ft 2 kts 221°
2026-04-27 02:14 34.89220 -82.21790 942 ft 10 kts 220°
2026-04-27 02:14 34.89148 -82.21856 943 ft 15 kts 224°
2026-04-27 02:15 34.89051 -82.21924 942 ft 17 kts 208°
2026-04-27 02:15 34.88999 -82.22044 943 ft 17 kts 257°
2026-04-27 02:15 34.88908 -82.22154 941 ft 24 kts 212°
2026-04-27 02:15 34.88731 -82.22289 936 ft 34 kts 212°
2026-04-27 02:16 34.88528 -82.22438 930 ft 34 kts 211°
2026-04-27 02:16 34.88325 -82.22598 919 ft 31 kts 211°
2026-04-27 02:16 34.88229 -82.22700 911 ft 17 kts 257°
2026-04-27 02:16 34.88305 -82.22832 899 ft 19 kts 353°
2026-04-27 02:17 34.88487 -82.22710 911 ft 61 kts 34°
2026-04-27 02:17 34.89069 -82.22263 941 ft 135 kts 33°
2026-04-27 02:17 34.90012 -82.21545 1297 ft 168 kts 35°
2026-04-27 02:17 34.90955 -82.20822 2218 ft 165 kts 35°
2026-04-27 02:18 34.91930 -82.20135 3152 ft 164 kts 34°
2026-04-27 02:18 34.92922 -82.19399 3802 ft 177 kts 35°
2026-04-27 02:18 34.93976 -82.18536 4457 ft 192 kts 38°
2026-04-27 02:18 34.94841 -82.17263 5113 ft 208 kts 67°
2026-04-27 02:19 34.95075 -82.15471 5843 ft 226 kts 93°
2026-04-27 02:19 34.94495 -82.13643 6619 ft 246 kts 125°
2026-04-27 02:19 34.93105 -82.12397 7397 ft 264 kts 155°
2026-04-27 02:19 34.91254 -82.11865 8039 ft 284 kts 166°
2026-04-27 02:20 34.89395 -82.11021 8775 ft 290 kts 146°
2026-04-27 02:20 34.87710 -82.09692 9736 ft 292 kts 142°
2026-04-27 02:20 34.86017 -82.08333 10643 ft 298 kts 144°
2026-04-27 02:20 34.84201 -82.06964 11269 ft 313 kts 146°
2026-04-27 02:21 34.82310 -82.05630 12065 ft 320 kts 147°
2026-04-27 02:21 34.80365 -82.04311 12951 ft 323 kts 148°
2026-04-27 02:21 34.78381 -82.03001 13818 ft 327 kts 148°
2026-04-27 02:21 34.76378 -82.01693 14608 ft 332 kts 149°
2026-04-27 02:22 34.74305 -82.00349 15338 ft 338 kts 149°
2026-04-27 02:22 34.72213 -81.99002 16036 ft 345 kts 149°
2026-04-27 02:22 34.70090 -81.97640 16724 ft 351 kts 150°
2026-04-27 02:22 34.67931 -81.96257 17421 ft 357 kts 150°
2026-04-27 02:23 34.65702 -81.94832 18064 ft 363 kts 150°
2026-04-27 02:23 34.63441 -81.93388 18722 ft 369 kts 150°
2026-04-27 02:23 34.61173 -81.91941 19358 ft 375 kts 151°
2026-04-27 02:23 34.58863 -81.90469 19988 ft 380 kts 151°
2026-04-27 02:24 34.56512 -81.88972 20602 ft 385 kts 151°
2026-04-27 02:24 34.54131 -81.87455 21216 ft 390 kts 152°
2026-04-27 02:24 34.51727 -81.85926 21824 ft 394 kts 152°
2026-04-27 02:24 34.49265 -81.84361 22396 ft 400 kts 152°
2026-04-27 02:25 34.46801 -81.82796 22953 ft 405 kts 152°
2026-04-27 02:25 34.44268 -81.81188 23519 ft 410 kts 152°
2026-04-27 02:25 34.41751 -81.79593 24070 ft 415 kts 152°
2026-04-27 02:25 34.39156 -81.77949 24621 ft 420 kts 152°
2026-04-27 02:26 34.36571 -81.76311 25155 ft 424 kts 152°
2026-04-27 02:26 34.33955 -81.74654 25674 ft 429 kts 153°
2026-04-27 02:26 34.31280 -81.72961 26192 ft 433 kts 153°
2026-04-27 02:26 34.28610 -81.71272 26699 ft 437 kts 153°
2026-04-27 02:27 34.25916 -81.69571 27203 ft 441 kts 153°
2026-04-27 02:27 34.23203 -81.67857 27689 ft 445 kts 153°
2026-04-27 02:27 34.20437 -81.66111 28150 ft 448 kts 153°
2026-04-27 02:27 34.17654 -81.64356 28603 ft 452 kts 153°
2026-04-27 02:28 34.14844 -81.62584 29048 ft 456 kts 153°
2026-04-27 02:28 34.12040 -81.60816 29463 ft 460 kts 153°
2026-04-27 02:28 34.09174 -81.59098 29864 ft 462 kts 160°
2026-04-27 02:28 34.06079 -81.58221 30206 ft 459 kts 177°
2026-04-27 02:29 34.02857 -81.57951 30629 ft 460 kts 181°
2026-04-27 02:29 33.99659 -81.57790 31006 ft 462 kts 181°
2026-04-27 02:29 33.96449 -81.57611 31392 ft 465 kts 181°
2026-04-27 02:29 33.93212 -81.57394 31789 ft 467 kts 180°
2026-04-27 02:30 33.89988 -81.57144 32168 ft 469 kts 180°
2026-04-27 02:30 33.86733 -81.56872 32594 ft 469 kts 180°
2026-04-27 02:30 33.83458 -81.56585 33089 ft 467 kts 179°
2026-04-27 02:30 33.80251 -81.56298 33562 ft 465 kts 179°
2026-04-27 02:31 33.77030 -81.56006 34002 ft 464 kts 179°
2026-04-27 02:31 33.73814 -81.55713 34483 ft 462 kts 180°
2026-04-27 02:31 33.70625 -81.55422 34963 ft 461 kts 180°
2026-04-27 02:31 33.67450 -81.55133 35432 ft 459 kts 180°
2026-04-27 02:32 33.64280 -81.54845 35884 ft 457 kts 180°
2026-04-27 02:32 33.61109 -81.54554 36582 ft 449 kts 180°
2026-04-27 02:32 33.58058 -81.54274 37288 ft 440 kts 180°
2026-04-27 02:32 33.55034 -81.53997 37770 ft 436 kts 180°
2026-04-27 02:33 33.51964 -81.53722 37886 ft 441 kts 180°
2026-04-27 02:33 33.48898 -81.53448 38005 ft 445 kts 180°
2026-04-27 02:33 33.42641 -81.52888 38056 ft 456 kts 180°
2026-04-27 02:34 33.36237 -81.52311 38053 ft 469 kts 180°
2026-04-27 02:34 33.29663 -81.51719 38052 ft 480 kts 180°
2026-04-27 02:35 33.22938 -81.51110 38050 ft 489 kts 180°
2026-04-27 02:35 33.16077 -81.50491 38050 ft 496 kts 180°
2026-04-27 02:36 33.09174 -81.49868 38045 ft 497 kts 180°
2026-04-27 02:36 33.02307 -81.49251 38040 ft 498 kts 180°
2026-04-27 02:37 32.95379 -81.48628 38039 ft 497 kts 179°
2026-04-27 02:37 32.88494 -81.48011 38040 ft 497 kts 180°
2026-04-27 02:38 32.81623 -81.47397 38035 ft 497 kts 180°
2026-04-27 02:38 32.74717 -81.46780 38029 ft 497 kts 180°
2026-04-27 02:39 32.67798 -81.46164 38038 ft 497 kts 180°
2026-04-27 02:39 32.60938 -81.45554 38037 ft 497 kts 180°
2026-04-27 02:40 32.54022 -81.44940 38032 ft 497 kts 180°
2026-04-27 02:40 32.47154 -81.44330 38027 ft 498 kts 180°
2026-04-27 02:41 32.40268 -81.43721 38021 ft 496 kts 180°
2026-04-27 02:41 32.33350 -81.43109 38017 ft 496 kts 180°
2026-04-27 02:42 32.26485 -81.42504 38014 ft 496 kts 180°
2026-04-27 02:42 32.19617 -81.41897 38015 ft 495 kts 180°
2026-04-27 02:43 32.12764 -81.41293 38015 ft 495 kts 180°
2026-04-27 02:43 32.05867 -81.40689 38013 ft 495 kts 180°
2026-04-27 02:44 31.99016 -81.40087 38012 ft 495 kts 180°
2026-04-27 02:44 31.92178 -81.39488 38009 ft 495 kts 180°
2026-04-27 02:45 31.85271 -81.38885 38008 ft 494 kts 180°
2026-04-27 02:45 31.78438 -81.38289 38004 ft 494 kts 180°
2026-04-27 02:46 31.71551 -81.37687 38006 ft 494 kts 180°
2026-04-27 02:46 31.64713 -81.37090 37999 ft 493 kts 180°
2026-04-27 02:47 31.57883 -81.36497 37994 ft 493 kts 180°
2026-04-27 02:47 31.51005 -81.35902 37997 ft 494 kts 180°
2026-04-27 02:48 31.44148 -81.35306 37993 ft 494 kts 180°
2026-04-27 02:48 31.37433 -81.34715 37994 ft 470 kts 181°
2026-04-27 02:49 31.34239 -81.34433 37996 ft 454 kts 181°
2026-04-27 02:49 31.31143 -81.34162 37820 ft 444 kts 181°
2026-04-27 02:49 31.28043 -81.33895 37538 ft 440 kts 182°
2026-04-27 02:49 31.25005 -81.33637 37249 ft 440 kts 182°
2026-04-27 02:50 31.21935 -81.33377 36960 ft 439 kts 181°
2026-04-27 02:50 31.18888 -81.33120 36687 ft 443 kts 181°
2026-04-27 02:50 31.15785 -81.32859 36405 ft 457 kts 181°
2026-04-27 02:50 31.12533 -81.32587 36126 ft 471 kts 181°
2026-04-27 02:51 31.09242 -81.32308 35841 ft 481 kts 181°
2026-04-27 02:51 31.05921 -81.32021 35555 ft 483 kts 181°
2026-04-27 02:51 31.02528 -81.31725 35291 ft 484 kts 181°
2026-04-27 02:51 30.99179 -81.31434 35063 ft 484 kts 181°
2026-04-27 02:52 30.95833 -81.31143 34857 ft 483 kts 181°
2026-04-27 02:52 30.92487 -81.30856 34655 ft 483 kts 181°
2026-04-27 02:52 30.89130 -81.30565 34178 ft 476 kts 181°
2026-04-27 02:52 30.85882 -81.30284 33606 ft 471 kts 181°
2026-04-27 02:53 30.82604 -81.30002 33031 ft 466 kts 181°
2026-04-27 02:53 30.79429 -81.29731 32413 ft 463 kts 181°
2026-04-27 02:53 30.76202 -81.29458 31746 ft 461 kts 181°
2026-04-27 02:53 30.73030 -81.29188 31077 ft 459 kts 181°
2026-04-27 02:54 30.69881 -81.28920 30611 ft 452 kts 181°
2026-04-27 02:54 30.66760 -81.28649 30146 ft 439 kts 181°
2026-04-27 02:54 30.63772 -81.28392 29697 ft 428 kts 181°
2026-04-27 02:54 30.60817 -81.28142 29260 ft 425 kts 181°
2026-04-27 02:55 30.57855 -81.27937 28807 ft 421 kts 182°
2026-04-27 02:55 30.54954 -81.27792 28351 ft 418 kts 182°
2026-04-27 02:55 30.52076 -81.27659 27763 ft 418 kts 182°
2026-04-27 02:55 30.49123 -81.27523 26729 ft 427 kts 182°
2026-04-27 02:56 30.46134 -81.27382 25476 ft 439 kts 181°
2026-04-27 02:56 30.43071 -81.27232 24659 ft 448 kts 181°
2026-04-27 02:56 30.39854 -81.27071 24140 ft 474 kts 181°
2026-04-27 02:56 30.36535 -81.26902 23969 ft 488 kts 180°
2026-04-27 02:57 30.33129 -81.26722 23967 ft 492 kts 180°
2026-04-27 02:57 30.29688 -81.26541 23969 ft 497 kts 180°
2026-04-27 02:57 30.26198 -81.26357 23938 ft 498 kts 180°
2026-04-27 02:57 30.22808 -81.26153 23499 ft 481 kts 180°
2026-04-27 02:58 30.19512 -81.25944 22775 ft 472 kts 180°
2026-04-27 02:58 30.16268 -81.25740 21953 ft 467 kts 180°
2026-04-27 02:58 30.13020 -81.25536 20984 ft 466 kts 180°
2026-04-27 02:58 30.09796 -81.25338 19758 ft 470 kts 180°
2026-04-27 02:59 30.06518 -81.25138 18766 ft 467 kts 179°
2026-04-27 02:59 30.03321 -81.24939 18403 ft 451 kts 179°
2026-04-27 02:59 30.00233 -81.24746 17972 ft 438 kts 180°
2026-04-27 02:59 29.97243 -81.24562 17316 ft 431 kts 179°
2026-04-27 03:00 29.94276 -81.24380 16589 ft 413 kts 179°
2026-04-27 03:00 29.91474 -81.24215 15874 ft 395 kts 180°
2026-04-27 03:00 29.88810 -81.24104 15421 ft 378 kts 180°
2026-04-27 03:00 29.86212 -81.24017 15174 ft 366 kts 180°
2026-04-27 03:01 29.83694 -81.23933 14879 ft 359 kts 180°
2026-04-27 03:01 29.81209 -81.23848 14429 ft 358 kts 180°
2026-04-27 03:01 29.78681 -81.23763 13288 ft 377 kts 180°
2026-04-27 03:01 29.76024 -81.23673 12100 ft 394 kts 179°
2026-04-27 03:02 29.73301 -81.23573 11694 ft 383 kts 179°
2026-04-27 03:02 29.70722 -81.23474 11853 ft 358 kts 179°
2026-04-27 03:02 29.68287 -81.23381 11930 ft 341 kts 179°
2026-04-27 03:02 29.65817 -81.23287 11999 ft 362 kts 179°
2026-04-27 03:03 29.63262 -81.23158 12025 ft 384 kts 178°
2026-04-27 03:03 29.57848 -81.22849 11447 ft 377 kts 178°
2026-04-27 03:03 29.55277 -81.22701 11324 ft 360 kts 178°
2026-04-27 03:04 29.52822 -81.22560 11134 ft 341 kts 178°
2026-04-27 03:04 29.50497 -81.22430 10880 ft 330 kts 178°
2026-04-27 03:04 29.48236 -81.22304 10640 ft 326 kts 178°
2026-04-27 03:04 29.45979 -81.22179 10401 ft 324 kts 178°
2026-04-27 03:05 29.43705 -81.22053 10156 ft 323 kts 178°
2026-04-27 03:05 29.41463 -81.21918 9927 ft 321 kts 176°
2026-04-27 03:05 29.39243 -81.21646 9684 ft 318 kts 173°
2026-04-27 03:05 29.37061 -81.21320 9322 ft 314 kts 172°
2026-04-27 03:06 29.34886 -81.20991 8835 ft 315 kts 172°
2026-04-27 03:06 29.32718 -81.20671 8498 ft 307 kts 173°
2026-04-27 03:06 29.30642 -81.20372 8364 ft 299 kts 173°
2026-04-27 03:06 29.28584 -81.20081 8168 ft 297 kts 173°
2026-04-27 03:07 29.26547 -81.19795 7878 ft 295 kts 173°
2026-04-27 03:07 29.24504 -81.19510 7583 ft 294 kts 173°
2026-04-27 03:07 29.22477 -81.19228 7201 ft 295 kts 172°
2026-04-27 03:07 29.20429 -81.18945 6714 ft 298 kts 172°
2026-04-27 03:08 29.18363 -81.18658 6226 ft 300 kts 172°
2026-04-27 03:08 29.16295 -81.18372 5936 ft 294 kts 172°
2026-04-27 03:08 29.14271 -81.18093 5703 ft 287 kts 172°
2026-04-27 03:08 29.12294 -81.17821 5351 ft 286 kts 172°
2026-04-27 03:09 29.10331 -81.17550 4987 ft 285 kts 172°
2026-04-27 03:09 29.08346 -81.17275 4619 ft 284 kts 172°
2026-04-27 03:09 29.06389 -81.17004 4167 ft 286 kts 172°
2026-04-27 03:09 29.04392 -81.16728 3396 ft 301 kts 172°
2026-04-27 03:10 29.02251 -81.16432 2633 ft 311 kts 172°
2026-04-27 03:10 29.00166 -81.16146 2176 ft 297 kts 172°
2026-04-27 03:10 28.98185 -81.15876 1996 ft 272 kts 172°
2026-04-27 03:10 28.96402 -81.15635 1981 ft 243 kts 171°
2026-04-27 03:11 28.94780 -81.15413 1976 ft 226 kts 171°
2026-04-27 03:11 28.93158 -81.15185 1990 ft 244 kts 171°
2026-04-27 03:11 28.91438 -81.14943 1984 ft 246 kts 172°
2026-04-27 03:11 28.89769 -81.14714 1982 ft 240 kts 172°
2026-04-27 03:12 28.88093 -81.14484 1984 ft 240 kts 172°
2026-04-27 03:12 28.86451 -81.14260 1981 ft 233 kts 172°
2026-04-27 03:12 28.84907 -81.14052 1944 ft 209 kts 171°
2026-04-27 03:12 28.83489 -81.13858 1715 ft 199 kts 171°
2026-04-27 03:13 28.82163 -81.13675 1513 ft 187 kts 171°
2026-04-27 03:13 28.80912 -81.13507 1353 ft 173 kts 174°
2026-04-27 03:13 28.79761 -81.13525 1293 ft 157 kts 182°
2026-04-27 03:13 28.78710 -81.13747 1361 ft 148 kts 211°
2026-04-27 03:14 28.78132 -81.14612 1293 ft 136 kts 262°
2026-04-27 03:14 28.78082 -81.15649 1095 ft 131 kts 279°
2026-04-27 03:14 28.78148 -81.16687 833 ft 128 kts 277°
2026-04-27 03:14 28.78176 -81.17695 796 ft 129 kts 272°
2026-04-27 03:15 28.78156 -81.18724 628 ft 130 kts 272°
2026-04-27 03:15 28.78156 -81.19745 469 ft 128 kts 274°
2026-04-27 03:15 28.78173 -81.20762 280 ft 125 kts 273°
2026-04-27 03:15 28.78175 -81.21725 125 ft 121 kts 272°
2026-04-27 03:16 28.78182 -81.22621 34 ft 83 kts 269°